TimeEDT,TemperatureF,Dew PointF,Humidity,Sea Level PressureIn,VisibilityMPH,Wind Direction,Wind SpeedMPH,Gust SpeedMPH,PrecipitationIn,Events,Conditions,WindDirDegrees,DateUTC
12:51 AM,51.1,45.0,80,30.05,10.0,Calm,Calm,-,N/A,,Clear,0,2013-09-07 04:51:00
1:51 AM,52.0,44.1,74,30.03,10.0,Calm,Calm,-,N/A,,Clear,0,2013-09-07 05:51:00
2:51 AM,55.0,43.0,64,30.03,10.0,Variable,4.6,-,N/A,,Clear,0,2013-09-07 06:51:00
3:51 AM,55.0,43.0,64,30.02,10.0,Calm,Calm,-,N/A,,Clear,0,2013-09-07 07:51:00
4:51 AM,53.1,43.0,69,30.01,10.0,Calm,Calm,-,N/A,,Clear,0,2013-09-07 08:51:00
5:51 AM,50.0,44.1,80,30.01,10.0,Calm,Calm,-,N/A,,Clear,0,2013-09-07 09:51:00
6:51 AM,50.0,45.0,83,30.02,10.0,Calm,Calm,-,N/A,,Scattered Clouds,0,2013-09-07 10:51:00
7:51 AM,54.0,45.0,72,30.01,10.0,Calm,Calm,-,N/A,,Clear,0,2013-09-07 11:51:00
8:51 AM,59.0,48.0,67,29.99,10.0,Calm,Calm,-,N/A,,Clear,0,2013-09-07 12:51:00
9:51 AM,66.0,51.1,59,29.99,10.0,Variable,3.5,-,N/A,,Partly Cloudy,0,2013-09-07 13:51:00
10:51 AM,70.0,48.0,46,29.97,10.0,Variable,5.8,-,N/A,,Clear,0,2013-09-07 14:51:00
11:51 AM,72.0,46.0,40,29.96,10.0,Variable,6.9,-,N/A,,Clear,0,2013-09-07 15:51:00
12:51 PM,75.0,46.0,36,29.93,10.0,Variable,4.6,-,N/A,,Clear,0,2013-09-07 16:51:00
1:51 PM,75.9,48.0,37,29.91,10.0,Calm,Calm,-,N/A,,Clear,0,2013-09-07 17:51:00
2:51 PM,79.0,53.1,40,29.88,10.0,Variable,3.5,-,N/A,,Clear,0,2013-09-07 18:51:00
3:51 PM,75.9,51.1,42,29.86,10.0,Variable,3.5,-,N/A,,Clear,0,2013-09-07 19:51:00
4:51 PM,75.0,50.0,41,29.86,10.0,Calm,Calm,-,N/A,,Clear,0,2013-09-07 20:51:00
5:51 PM,72.0,51.1,48,29.86,10.0,Variable,3.5,-,N/A,,Clear,0,2013-09-07 21:51:00
6:51 PM,70.0,50.0,49,29.86,10.0,Calm,Calm,-,N/A,,Clear,0,2013-09-07 22:51:00
7:51 PM,68.0,52.0,56,29.86,10.0,Calm,Calm,-,0.00,Rain,Light Rain,0,2013-09-07 23:51:00
8:51 PM,66.0,51.1,59,29.86,10.0,Calm,Calm,-,0.00,Rain,Light Rain,0,2013-09-08 00:51:00
9:51 PM,63.0,53.1,70,29.85,10.0,Calm,Calm,-,0.00,Rain,Light Rain,0,2013-09-08 01:51:00
10:51 PM,64.0,50.0,60,29.84,10.0,Calm,Calm,-,0.00,,Overcast,0,2013-09-08 02:51:00
11:51 PM,64.0,51.1,63,29.81,10.0,Calm,Calm,-,N/A,,Overcast,0,2013-09-08 03:51:00